K9JVA Weather Reports


time (UTC)temp
C
wind
direction
speed
KPH
gust
KPH
rain 1hr
cm
rain 24hr
cm
rain mn
cm
humidity
%
barometer
mb
20260903010606 29 0.0 0.0 0.00 0.00 0.00 66 1017.0
20260903010105 29 0.0 0.0 0.00 0.00 0.00 65 1016.8
20260903005605 29 0.0 0.0 0.00 0.00 0.00 64 1016.8
20260903005105 30 0.0 0.0 0.00 0.00 0.00 63 1016.8
20260903004819 30 0.0 0.0 0.00 0.00 0.00 62 1016.8
20260903004104 30 0.0 0.0 0.00 0.00 0.00 61 1016.8
20260903003602 30 0.0 0.0 0.00 0.00 0.00 60 1016.7
20260903003103 30 0.0 0.0 0.00 0.00 0.00 59 1016.7
20260903002821 31 0.0 0.0 0.00 0.00 0.00 59 1016.7
20260903002102 31 0.0 0.0 0.00 0.00 0.00 57 1016.6
20260903001830 31 0.0 0.0 0.00 0.00 0.00 57 1016.8
20260903001100 31 0.0 0.0 0.00 0.00 0.00 56 1016.6
20260903000822 31 0.0 0.0 0.00 0.00 0.00 56 1016.7
20260903000100 31 0.0 0.0 0.00 0.00 0.00 57 1016.5
20260902235558 32 0.0 0.0 0.00 0.00 0.00 54 1016.6
20260902235058 32 0.0 0.0 0.00 0.00 0.00 53 1016.5
20260902234826 32 0.0 0.0 0.00 0.00 0.00 52 1016.7
20260902234321 32 0.0 0.0 0.00 0.00 0.00 52 1016.6
20260902233555 32 0.0 0.0 0.00 0.00 0.00 51 1016.5
20260902233055 32 0.0 0.0 0.00 0.00 0.00 51 1016.5
20260902232555 32 0.0 0.0 0.00 0.00 0.00 50 1016.6
20260902232316 33 0.0 0.0 0.00 0.00 0.00 49 1016.6
20260902231554 33 0.0 0.0 0.00 0.00 0.00 49 1016.6
20260902231053 33 0.0 0.0 0.00 0.00 0.00 49 1016.5
20260902230814 33 0.0 0.0 0.00 0.00 0.00 50 1016.6
20260902230052 33 0.0 0.0 0.00 0.00 0.00 50 1016.9
20260902225553 33 0.0 0.0 0.00 0.00 0.00 49 1016.7
20260902225051 33 0.0 0.0 0.00 0.00 0.00 47 1016.8
20260902224550 33 0.0 0.0 0.00 0.00 0.00 48 1016.8
20260902224052 33 0.0 0.0 0.00 0.00 0.00 47 1016.7
20260902223813 34 0.0 0.0 0.00 0.00 0.00 45 1016.8
20260902223051 34 0.0 0.0 0.00 0.00 0.00 46 1016.8
20260902222548 34 0.0 0.0 0.00 0.00 0.00 46 1016.7
20260902222048 34 0.0 0.0 0.00 0.00 0.00 46 1016.8
20260902221548 34 0.0 0.0 0.00 0.00 0.00 46 1016.9
20260902221046 34 0.0 0.0 0.00 0.00 0.00 46 1016.8
20260902220548 34 0.0 0.0 0.00 0.00 0.00 46 1016.7
20260902220304 34 0.0 0.0 0.00 0.00 0.00 45 1016.9
20260902215545 35 0.0 0.0 0.00 0.00 0.00 45 1016.7
20260902215044 35 0.0 0.0 0.00 0.00 0.00 44 1016.8
20260902214544 34 0.0 0.0 0.00 0.00 0.00 45 1016.8
20260902214043 34 0.0 0.0 0.00 0.00 0.00 44 1016.9
20260902213543 35 0.0 0.0 0.00 0.00 0.00 44 1016.8
20260902213042 35 0.0 0.0 0.00 0.00 0.00 44 1016.8
20260902212542 35 0.0 0.0 0.00 0.00 0.00 44 1017.0
20260902212041 35 0.0 0.0 0.00 0.00 0.00 44 1016.9
20260902211805 35 0.0 0.0 0.00 0.00 0.00 44 1016.9
20260902211040 34 0.0 0.0 0.00 0.00 0.00 45 1017.1
20260902210539 35 0.0 0.0 0.00 0.00 0.00 43 1017.0
20260902210519 34 0.0 0.0 0.00 0.00 0.00 45 1017.0
20260902205539 33 0.0 0.0 0.00 0.00 0.00 44 1017.1
20260902205256 35 0.0 0.0 0.00 0.00 0.00 44 1017.3
20260902204538 35 0.0 0.0 0.00 0.00 0.00 43 1017.1
20260902204038 35 0.0 0.0 0.00 0.00 0.00 43 1017.1
20260902203536 33 0.0 0.0 0.00 0.00 0.00 44 1017.2
20260902203036 33 0.0 0.0 0.00 0.00 0.00 45 1017.1
20260902202537 35 0.0 0.0 0.00 0.00 0.00 44 1017.3
20260902202035 34 0.0 0.0 0.00 0.00 0.00 45 1017.3
20260902201535 33 0.0 0.0 0.00 0.00 0.00 45 1017.4
20260902201034 33 0.0 0.0 0.00 0.00 0.00 45 1017.3
20260902200534 35 0.0 0.0 0.00 0.00 0.00 44 1017.4
20260902200034 33 0.0 0.0 0.00 0.00 0.00 45 1017.5
20260902195532 33 0.0 0.0 0.00 0.00 0.00 44 1017.6
20260902195031 34 0.0 0.0 0.00 0.00 0.00 43 1017.6
20260902194531 33 0.0 0.0 0.00 0.00 0.00 45 1017.6
20260902194030 33 0.0 0.0 0.00 0.00 0.00 45 1017.6
20260902193532 34 0.0 0.0 0.00 0.00 0.00 45 1017.8
20260902193030 33 0.0 0.0 0.00 0.00 0.00 46 1017.7
20260902192529 33 0.0 0.0 0.00 0.00 0.00 45 1017.8
20260902192030 34 0.0 0.0 0.00 0.00 0.00 44 1017.7
20260902191528 35 0.0 0.0 0.00 0.00 0.00 42 1017.7
20260902191255 34 0.0 0.0 0.00 0.00 0.00 43 1018.0
20260902190527 34 0.0 0.0 0.00 0.00 0.00 45 1018.0
20260902190251 34 0.0 0.0 0.00 0.00 0.00 44 1018.4
20260902185751 33 0.0 0.0 0.00 0.00 0.00 43 1018.3
20260902185026 33 0.0 0.0 0.00 0.00 0.00 45 1018.2
20260902185008 33 0.0 0.0 0.00 0.00 0.00 46 1018.2
20260902184026 34 0.0 0.0 0.00 0.00 0.00 44 1018.3
20260902183524 34 0.0 0.0 0.00 0.00 0.00 45 1018.4
20260902183240 35 0.0 0.0 0.00 0.00 0.00 46 1018.3
20260902182524 34 0.0 0.0 0.00 0.00 0.00 46 1018.4
20260902182022 33 0.0 0.0 0.00 0.00 0.00 50 1018.4
20260902181522 33 0.0 0.0 0.00 0.00 0.00 49 1018.4
20260902181021 32 0.0 0.0 0.00 0.00 0.00 51 1018.4
20260902180521 33 0.0 0.0 0.00 0.00 0.00 48 1018.5
20260902180020 34 0.0 0.0 0.00 0.00 0.00 47 1018.7
20260902175520 33 0.0 0.0 0.00 0.00 0.00 47 1018.7
20260902175019 33 0.0 0.0 0.00 0.00 0.00 47 1018.7
20260902174521 34 0.0 0.0 0.00 0.00 0.00 46 1018.8
20260902174018 33 0.0 0.0 0.00 0.00 0.00 48 1018.7
20260902173518 33 0.0 0.0 0.00 0.00 0.00 47 1018.9
20260902173238 33 0.0 0.0 0.00 0.00 0.00 47 1018.8
20260902172517 34 0.0 0.0 0.00 0.00 0.00 46 1018.9
20260902172016 34 0.0 0.0 0.00 0.00 0.00 45 1018.8
20260902171516 33 0.0 0.0 0.00 0.00 0.00 46 1018.9
20260902171015 33 0.0 0.0 0.00 0.00 0.00 45 1019.0
20260902170731 33 0.0 0.0 0.00 0.00 0.00 47 1019.0
20260902170238 33 0.0 0.0 0.00 0.00 0.00 46 1019.0
20260902165732 33 0.0 0.0 0.00 0.00 0.00 47 1019.1
20260902165015 33 0.0 0.0 0.00 0.00 0.00 48 1019.1
20260902164513 33 0.0 0.0 0.00 0.00 0.00 47 1019.2
20260902164231 33 0.0 0.0 0.00 0.00 0.00 48 1019.1
20260902163513 32 0.0 0.0 0.00 0.00 0.00 48 1019.1
20260902163011 32 0.0 0.0 0.00 0.00 0.00 49 1019.2
20260902162511 32 0.0 0.0 0.00 0.00 0.00 49 1019.3
20260902162012 32 0.0 0.0 0.00 0.00 0.00 49 1019.3
20260902161710 33 0.0 0.0 0.00 0.00 0.00 48 1019.3
20260902160508 32 0.0 0.0 0.00 0.00 0.00 50 1019.4
20260902160009 32 0.0 0.0 0.00 0.00 0.00 51 1019.3
20260902155507 32 0.0 0.0 0.00 0.00 0.00 51 1019.4
20260902155007 32 0.0 0.0 0.00 0.00 0.00 52 1019.5
20260902154506 32 0.0 0.0 0.00 0.00 0.00 52 1019.6
20260902154222 32 0.0 0.0 0.00 0.00 0.00 54 1019.7
20260902153505 32 0.0 0.0 0.00 0.00 0.00 53 1019.6
20260902153236 31 0.0 0.0 0.00 0.00 0.00 56 1019.4
20260902152726 32 0.0 0.0 0.00 0.00 0.00 54 1019.4
20260902152003 32 0.0 0.0 0.00 0.00 0.00 55 1019.5
20260902151503 31 0.0 0.0 0.00 0.00 0.00 56 1019.7
20260902151002 32 0.0 0.0 0.00 0.00 0.00 55 1019.8
20260902150501 31 0.0 0.0 0.00 0.00 0.00 56 1019.8
20260902150230 31 0.0 0.0 0.00 0.00 0.00 59 1019.8
20260902145500 31 0.0 0.0 0.00 0.00 0.00 59 1019.6
20260902145002 31 0.0 0.0 0.00 0.00 0.00 59 1019.6
20260902144500 30 0.0 0.0 0.00 0.00 0.00 60 1019.8
20260902143959 30 0.0 0.0 0.00 0.00 0.00 61 1019.6
20260902143459 30 0.0 0.0 0.00 0.00 0.00 61 1019.6
20260902142958 30 0.0 0.0 0.00 0.00 0.00 61 1019.5
20260902142458 30 0.0 0.0 0.00 0.00 0.00 63 1019.4
20260902141957 29 0.0 0.0 0.00 0.00 0.00 64 1019.6
20260902141457 28 0.0 0.0 0.00 0.00 0.00 67 1019.7
20260902141219 29 0.0 0.0 0.00 0.00 0.00 66 1019.7
20260902140455 28 0.0 0.0 0.00 0.00 0.00 68 1019.7
20260902135954 28 0.0 0.0 0.00 0.00 0.00 68 1019.6
20260902135456 28 0.0 0.0 0.00 0.00 0.00 67 1019.7
20260902135216 28 0.0 0.0 0.00 0.00 0.00 67 1019.7
20260902134453 27 0.0 0.0 0.00 0.00 0.00 69 1019.5
20260902133953 27 0.0 0.0 0.00 0.00 0.00 70 1019.7
20260902133716 27 0.0 0.0 0.00 0.00 0.00 71 1019.7
20260902132952 27 0.0 0.0 0.00 0.00 0.00 71 1019.6
20260902132452 27 0.0 0.0 0.00 0.00 0.00 71 1019.6
20260902132211 27 0.0 0.0 0.00 0.00 0.00 73 1019.7
20260902131707 27 0.0 0.0 0.00 0.00 0.00 72 1019.5
20260902130949 27 0.0 0.0 0.00 0.00 0.00 73 1019.6
20260902130450 27 0.0 0.0 0.00 0.00 0.00 73 1019.5
20260902125949 26 0.0 0.0 0.00 0.00 0.00 73 1019.6
20260902125448 26 0.0 0.0 0.00 0.00 0.00 75 1019.5
20260902124949 26 0.0 0.0 0.00 0.00 0.00 75 1019.6
20260902124447 26 0.0 0.0 0.00 0.00 0.00 76 1019.5
20260902123946 26 0.0 0.0 0.00 0.00 0.00 76 1019.5
20260902123446 26 0.0 0.0 0.00 0.00 0.00 77 1019.1
20260902122946 25 0.0 0.0 0.00 0.00 0.00 79 1019.5
20260902122444 25 0.0 0.0 0.00 0.00 0.00 78 1019.6
20260902122206 25 0.0 0.0 0.00 0.00 0.00 80 1019.3
20260902121443 25 0.0 0.0 0.00 0.00 0.00 80 1019.2
20260902120942 25 0.0 0.0 0.00 0.00 0.00 82 1019.3
20260902120444 24 0.0 0.0 0.00 0.00 0.00 82 1019.2
20260902115942 24 0.0 0.0 0.00 0.00 0.00 83 1019.2
20260902115441 23 0.0 0.0 0.00 0.00 0.00 84 1019.2
20260902115203 23 0.0 0.0 0.00 0.00 0.00 85 1019.1
20260902114709 23 0.0 0.0 0.00 0.00 0.00 85 1019.1
20260902104934 23 0.0 0.0 0.00 0.00 0.00 87 1018.8
20260902104702 23 0.0 0.0 0.00 0.00 0.00 88 1018.9
20260902104152 23 0.0 0.0 0.00 0.00 0.00 89 1018.7
20260902103432 23 0.0 0.0 0.00 0.00 0.00 89 1018.8
20260902103155 23 0.0 0.0 0.00 0.00 0.00 89 1018.8
20260902102432 23 0.0 0.0 0.00 0.00 0.00 89 1018.8
20260902101932 23 0.0 0.0 0.00 0.00 0.00 90 1018.8
20260902101430 23 0.0 0.0 0.00 0.00 0.00 89 1019.0
20260902100929 23 0.0 0.0 0.00 0.00 0.00 90 1018.7
20260902100651 23 0.0 0.0 0.00 0.00 0.00 89 1018.8
20260902095929 23 0.0 0.0 0.00 0.00 0.00 89 1018.7
20260902095649 23 0.0 0.0 0.00 0.00 0.00 89 1018.8
20260902094928 23 0.0 0.0 0.00 0.00 0.00 89 1018.6
20260902094427 23 0.0 0.0 0.00 0.00 0.00 90 1018.6
20260902093928 23 0.0 0.0 0.00 0.00 0.00 90 1018.7
20260902093426 22 0.0 0.0 0.00 0.00 0.00 91 1018.8
20260902092925 22 0.0 0.0 0.00 0.00 0.00 92 1018.8
20260902092648 22 0.0 0.0 0.00 0.00 0.00 92 1018.8
20260902091924 22 0.0 0.0 0.00 0.00 0.00 92 1018.6
20260902091424 22 0.0 0.0 0.00 0.00 0.00 92 1018.6
20260902090923 22 0.0 0.0 0.00 0.00 0.00 92 1018.5
20260902090643 22 0.0 0.0 0.00 0.00 0.00 92 1018.5
20260902085922 22 0.0 0.0 0.00 0.00 0.00 92 1018.6
20260902085421 22 0.0 0.0 0.00 0.00 0.00 91 1018.4
20260902084923 22 0.0 0.0 0.00 0.00 0.00 91 1018.3
20260902084421 22 0.0 0.0 0.00 0.00 0.00 90 1018.2
20260902083920 22 0.0 0.0 0.00 0.00 0.00 90 1018.1
20260902083421 23 0.0 0.0 0.00 0.00 0.00 89 1018.0
20260902082919 23 0.0 0.0 0.00 0.00 0.00 90 1018.3
20260902082418 23 0.0 0.0 0.00 0.00 0.00 89 1017.7
20260902082145 23 0.0 0.0 0.00 0.00 0.00 88 1018.1
20260902081418 23 0.0 0.0 0.00 0.00 0.00 89 1018.1
20260902080916 23 0.0 0.0 0.00 0.00 0.00 89 1018.1
20260902080610 23 0.0 0.0 0.00 0.00 0.00 89 1018.2
20260902075415 23 0.0 0.0 0.00 0.00 0.00 89 1018.0
20260902074915 23 0.0 0.0 0.00 0.00 0.00 88 1017.7
20260902074415 23 0.0 0.0 0.00 0.00 0.00 88 1017.8
20260902073913 23 0.0 0.0 0.00 0.00 0.00 87 1017.8
20260902073412 23 0.0 0.0 0.00 0.00 0.00 87 1018.0
20260902072912 23 0.0 0.0 0.00 0.00 0.00 87 1018.0
20260902072641 23 0.0 0.0 0.00 0.00 0.00 86 1018.0
20260902071911 23 0.0 0.0 0.00 0.00 0.00 86 1018.0
20260902071848 23 0.0 0.0 0.00 0.00 0.00 86 1018.0
20260902070911 23 0.0 0.0 0.00 0.00 0.00 85 1018.0
20260902070411 23 0.0 0.0 0.00 0.00 0.00 84 1017.8
20260902065911 24 0.0 0.0 0.00 0.00 0.00 85 1018.0
20260902065409 24 0.0 0.0 0.00 0.00 0.00 84 1018.2
20260902064908 24 0.0 0.0 0.00 0.00 0.00 84 1017.7
20260902064408 24 0.0 0.0 0.00 0.00 0.00 84 1017.8
20260902063909 24 0.0 0.0 0.00 0.00 0.00 84 1018.0
20260902063406 24 0.0 0.0 0.00 0.00 0.00 84 1018.0
20260902062906 24 0.0 0.0 0.00 0.00 0.00 83 1018.2
20260902062405 24 0.0 0.0 0.00 0.00 0.00 84 1018.0
20260902061905 24 0.0 0.0 0.00 0.00 0.00 83 1017.8
20260902061406 24 0.0 0.0 0.00 0.00 0.00 82 1018.1
20260902060903 24 0.0 0.0 0.00 0.00 0.00 83 1018.0
20260902060403 25 0.0 0.0 0.00 0.00 0.00 83 1018.0
20260902055902 25 0.0 0.0 0.00 0.00 0.00 82 1018.1
20260902055404 25 0.0 0.0 0.00 0.00 0.00 82 1017.7
20260902054903 25 0.0 0.0 0.00 0.00 0.00 82 1018.1
20260902054401 25 0.0 0.0 0.00 0.00 0.00 82 1018.2
20260902053902 25 0.0 0.0 0.00 0.00 0.00 81 1018.0
20260902053400 25 0.0 0.0 0.00 0.00 0.00 81 1017.8
20260902052901 25 0.0 0.0 0.00 0.00 0.00 80 1018.1
20260902052359 25 0.0 0.0 0.00 0.00 0.00 80 1018.1
20260902051858 25 0.0 0.0 0.00 0.00 0.00 79 1018.2
20260902051846 25 0.0 0.0 0.00 0.00 0.00 79 1018.4
20260902050858 25 0.0 0.0 0.00 0.00 0.00 79 1018.2
20260902050358 26 0.0 0.0 0.00 0.00 0.00 78 1018.3
20260902050126 26 0.0 0.0 0.00 0.00 0.00 77 1018.1
20260902045357 26 0.0 0.0 0.00 0.00 0.00 76 1018.0
20260902044855 26 0.0 0.0 0.00 0.00 0.00 75 1018.0
20260902044622 26 0.0 0.0 0.00 0.00 0.00 75 1018.1
20260902044120 26 0.0 0.0 0.00 0.00 0.00 76 1018.0
20260902043354 26 0.0 0.0 0.00 0.00 0.00 77 1018.1
20260902042855 26 0.0 0.0 0.00 0.00 0.00 77 1018.0
20260902042352 26 0.0 0.0 0.00 0.00 0.00 77 1018.1
20260902042342 26 0.0 0.0 0.00 0.00 0.00 76 1018.1
20260902041619 26 0.0 0.0 0.00 0.00 0.00 76 1018.2
20260902040851 26 0.0 0.0 0.00 0.00 0.00 76 1018.1
20260902040351 26 0.0 0.0 0.00 0.00 0.00 76 1018.2
20260902035852 26 0.0 0.0 0.00 0.00 0.00 75 1018.2
20260902035350 26 0.0 0.0 0.00 0.00 0.00 74 1018.3
20260902034849 26 0.0 0.0 0.00 0.00 0.00 74 1018.3
20260902034349 27 0.0 0.0 0.00 0.00 0.00 73 1018.2
20260902033851 27 0.0 0.0 0.00 0.00 0.00 73 1018.1
20260902033348 27 0.0 0.0 0.00 0.00 0.00 73 1018.2
20260902033042 27 0.0 0.0 0.00 0.00 0.00 72 1018.0
20260902031847 27 0.0 0.0 0.00 0.00 0.00 73 1018.0
20260902031346 27 0.0 0.0 0.00 0.00 0.00 74 1018.0
20260902030846 27 0.0 0.0 0.00 0.00 0.00 73 1018.0
20260902030344 27 0.0 0.0 0.00 0.00 0.00 73 1018.1
20260902025844 27 0.0 0.0 0.00 0.00 0.00 73 1018.0
20260902025343 27 0.0 0.0 0.00 0.00 0.00 72 1018.1
20260902024843 27 0.0 0.0 0.00 0.00 0.00 74 1018.2
20260902024344 27 0.0 0.0 0.00 0.00 0.00 73 1018.0
20260902023842 27 0.0 0.0 0.00 0.00 0.00 72 1018.2
20260902023342 27 0.0 0.0 0.00 0.00 0.00 72 1018.1
20260902022842 27 0.0 0.0 0.00 0.00 0.00 72 1017.8
20260902022340 27 0.0 0.0 0.00 0.00 0.00 71 1018.1
20260902021842 27 0.0 0.0 0.00 0.00 0.00 71 1018.1
20260902021601 27 0.0 0.0 0.00 0.00 0.00 70 1017.7
20260902020841 28 0.0 0.0 0.00 0.00 0.00 70 1018.0
20260902020339 28 0.0 0.0 0.00 0.00 0.00 69 1018.1
20260902015839 28 0.0 0.0 0.00 0.00 0.00 68 1018.0
20260902015337 28 0.0 0.0 0.00 0.00 0.00 70 1018.1
20260902014838 28 0.0 0.0 0.00 0.00 0.00 69 1017.8
20260902014604 28 0.0 0.0 0.00 0.00 0.00 68 1018.0
20260902013837 28 0.0 0.0 0.00 0.00 0.00 68 1018.1
20260902013335 28 0.0 0.0 0.00 0.00 0.00 67 1018.1
20260902012835 28 0.0 0.0 0.00 0.00 0.00 66 1017.8
20260902012334 29 0.0 0.0 0.00 0.00 0.00 65 1017.8
20260902012054 29 0.0 0.0 0.00 0.00 0.00 64 1017.8
20260902011333 29 0.0 0.0 0.00 0.00 0.00 64 1017.7